Weather History for KNBC - June, 2014

Change the Weather History Date:

Thursday, June 19, 2014

  Actual Average Record
Temperature  
Mean Temperature 82 °F -  
Max Temperature 91 °F 88 °F 99 °F (1970)
Min Temperature 73 °F 70 °F 57 °F (1961)
Cooling Degree Days 17    
Growing Degree Days 32 (Base 50)    
Moisture  
Dew Point 70 °F    
Average Humidity 68    
Maximum Humidity 91    
Minimum Humidity 45    
Precipitation  
Precipitation 0.00 in - - ()
Sea Level Pressure  
Sea Level Pressure 30.11 in    
Wind  
Wind Speed 5 mph (WSW)    
Max Wind Speed 10 mph    
Max Gust Speed -    
Visibility 10 miles    
Events      
Averages and records for this station are not official NWS values.
T = Trace of Precipitation, MM = Missing Value Source: NWS Daily Summary

Daily Weather History Graph

Daily Weather History Graph

Search for Another Location

Airport or City:

Trip Planner

Search our weather history database for the weather conditions in past years. The results will help you decide how hot, cold, wet, or windy it might be!

Date:

Astronomy

Jun. 19, 2014 Rise Set
Actual Time 6:15 AM EDT 8:32 PM EDT
Civil Twilight 5:47 AM EDT 9:01 PM EDT
Nautical Twilight 5:12 AM EDT 9:36 PM EDT
Astronomical Twilight 4:34 AM EDT 10:14 PM EDT
Moon 12:56 AM EDT (6/19) 1:21 PM EDT (6/19)
Length of Visible Light 15h 14m
Length of Day
14h 17m
Waning Gibbous, 51% of the Moon is Illuminated
Jun 19
Waning Gibbous
Jun 19
Last Quarter
Jun 27
New
Jul 5
First Quarter
Jul 12
Full

Hourly Weather History & Observations

Time (EDT) Temp. Heat Index Dew Point Humidity Pressure Visibility Wind Dir Wind Speed Gust Speed Precip Events Conditions
12:56 AM 75.9 °F - 71.1 °F 85% 30.14 in 10.0 mi WNW 3.5 mph - N/A   Clear
1:56 AM 75.0 °F - 71.1 °F 87% 30.14 in 10.0 mi West 3.5 mph - N/A   Clear
2:56 AM 75.0 °F - 71.1 °F 87% 30.12 in 10.0 mi West 3.5 mph - N/A   Clear
3:56 AM 73.9 °F - 71.1 °F 91% 30.12 in 10.0 mi WNW 3.5 mph - N/A   Clear
4:56 AM 73.9 °F - 71.1 °F 91% 30.12 in 10.0 mi NW 3.5 mph - N/A   Scattered Clouds
6:56 AM 73.9 °F - 71.1 °F 91% 30.14 in 10.0 mi West 3.5 mph - N/A   Partly Cloudy
7:56 AM 77.0 °F - 72.0 °F 84% 30.15 in 10.0 mi WNW 5.8 mph - N/A   Partly Cloudy
8:56 AM 81.0 °F 84.9 °F 71.1 °F 72% 30.16 in 10.0 mi West 8.1 mph - N/A   Partly Cloudy
9:56 AM 84.0 °F 87.0 °F 68.0 °F 58% 30.16 in 10.0 mi WNW 9.2 mph - N/A   Partly Cloudy
10:56 AM 87.1 °F 90.6 °F 68.0 °F 53% 30.16 in 10.0 mi NNE 5.8 mph - N/A   Scattered Clouds
11:56 AM 86.0 °F 88.2 °F 66.0 °F 51% 30.16 in 10.0 mi Calm Calm - N/A   Mostly Cloudy
12:56 PM 88.0 °F 90.3 °F 66.0 °F 48% 30.15 in 10.0 mi South 3.5 mph - N/A   Mostly Cloudy
1:56 PM 91.0 °F 95.2 °F 68.0 °F 47% 30.12 in 10.0 mi South 3.5 mph - N/A   Scattered Clouds
2:56 PM 91.9 °F 95.9 °F 68.0 °F 45% 30.11 in 10.0 mi Variable 3.5 mph - N/A   Scattered Clouds
3:56 PM 90.0 °F 96.9 °F 72.0 °F 55% 30.08 in 10.0 mi South 10.4 mph - N/A   Scattered Clouds
4:56 PM 89.1 °F 98.0 °F 73.9 °F 61% 30.07 in 10.0 mi SSW 5.8 mph - N/A   Partly Cloudy
5:56 PM 88.0 °F 94.7 °F 72.0 °F 59% 30.06 in 10.0 mi SSW 5.8 mph - N/A   Partly Cloudy
6:56 PM 86.0 °F 91.5 °F 71.1 °F 61% 30.06 in 10.0 mi SSW 6.9 mph - N/A   Clear
7:56 PM 84.0 °F 87.8 °F 69.1 °F 61% 30.07 in 10.0 mi SW 4.6 mph - N/A   Partly Cloudy
8:56 PM 81.0 °F 84.1 °F 69.1 °F 67% 30.07 in 10.0 mi SW 4.6 mph - N/A   Partly Cloudy
9:56 PM 79.0 °F - 68.0 °F 69% 30.08 in 10.0 mi SW 4.6 mph - N/A   Clear
10:56 PM 78.1 °F - 66.9 °F 68% 30.08 in 10.0 mi SW 5.8 mph - N/A   Clear
11:56 PM 78.1 °F - 69.1 °F 74% 30.07 in 10.0 mi WSW 5.8 mph - N/A   Clear